Weather in Dalat

Vietnam     11°57′49″N   108°27′31″E
temp.,
°C
wind,
m/s
gust,
m/s
humid.,
%
clouds,
%
prec.,
mm/h
press.,
hPa
HPBL,
m
16 may, sun
sun1601:00+16n119635 0.0 101213
04:00+15nne119066 0.0 101211
07:00+19ne117756 0.0 101398
10:00+27ese234792 0.0 10111641
13:00+24ese126970 0.9 1010636
16:00+22se118624 4.1 1009336
19:00+18e11988 5.5 101112
22:00+17ene119827 0.2 101331
17 may, mon
mon1701:00+17ne009823 0.3 101219
04:00+17nne119767 0.0 101113
07:00+20ne118813 0.0 1012112
10:00+26e235529 0.1 10121539
13:00+23e128288 4.1 1011680
16:00+22e129141 4.4 1010444
19:00+18e1210098 6.1 101250
22:00+18ese1297100 0.3 101394
18 may, tue
tue1801:00+17ese119863 0.3 101221
04:00+16ene119718 0.0 101212
07:00+19ese118857 0.0 1013128
10:00+27ese225038 0.0 10121496
13:00+27se235179 0.1 10091790
16:00+21e139093 2.2 1009124
19:00+18se119955 4.3 101227
22:00+17sse11100100 0.1 101328
19 may, wed
wed1901:00+17ssw019882 0.1 101273
04:00+16n119949 0.0 101215
07:00+19ne019099 0.0 1013110
10:00+27ese014566 0.0 10121776
13:00+20wsw1186100 1.1 101151
16:00+19ne009398 1.8 101020
19:00+18wsw119569 2.8 101119
22:00+17n009781 0.2 101311
20 may, thu
thu2001:00+16nw119737 0.2 101212
04:00+16nnw119716 0.0 101114
07:00+20nw0088100 0.0 1012106
10:00+28ssw0147100 0.0 10111784
13:00+21ssw138798 1.5 1011193
16:00+19nw1197100 5.1 101042
19:00+18sw119680 8.4 101113
22:00+17nw119699 1.1 101312